Weather History for Columbia Airport, CA

Change the Weather History Date:

Monday, October 7, 2013

  Actual Average (KMOD) Record (KMOD)
Temperature  
Mean Temperature 63 °F -  
Max Temperature 82 °F 83 °F 96 °F (1980)
Min Temperature 44 °F 55 °F 41 °F (1941)
Degree Days  
Heating Degree Days 2 1  
Month to date heating degree days 4  
Since 1 July heating degree days 7  
Cooling Degree Days 0 5  
Month to date cooling degree days 37  
Year to date cooling degree days 1649  
Growing Degree Days 13 (Base 50)    
Moisture  
Dew Point 26 °F    
Average Humidity 31    
Maximum Humidity 53    
Minimum Humidity 10    
Precipitation  
Precipitation 0.00 in 0.02 in 1.75 in (1973)
Month to date precipitation 0.10  
Year to date precipitation 9.13  
Since 1 July precipitation 0.38  
Snow  
Snow 0.00 in - 0.00 in (2002)
Month to date snowfall  
Since 1 July snowfall  
Since 1 September snowfall  
Snow Depth -    
Sea Level Pressure  
Sea Level Pressure 29.98 in    
Wind  
Wind Speed 1 mph (WSW)    
Max Wind Speed 9 mph    
Max Gust Speed -    
Visibility 10 miles    
Events      
T = Trace of Precipitation, MM = Missing Value Source: NWS Daily Summary

Daily Weather History Graph

Daily Weather History Graph

Search for Another Location

Airport:

Trip Planner

Search our weather history database for the weather conditions in past years. The results will help you decide how hot, cold, wet, or windy it might be!

Date:

Astronomy

Oct. 07, 2013 Rise Set
Actual Time 7:03 AM PDT 6:35 PM PDT
Civil Twilight 6:36 AM PDT 7:01 PM PDT
Nautical Twilight 6:06 AM PDT 7:31 PM PDT
Astronomical Twilight 5:35 AM PDT 8:02 PM PDT
Moon 9:55 AM PDT (10/7) 8:27 PM PDT (10/7)
Length of Visible Light 12h 24m
Length of Day
11h 31m
Waxing Crescent, 9% of the Moon is Illuminated
Oct 7
Waxing Crescent
Oct 11
First Quarter
Oct 18
Full
Oct 26
Last Quarter
Nov 3
New

Hourly Weather History & Observations

Time (PDT) Temp. Dew Point Humidity Pressure Visibility Wind Dir Wind Speed Gust Speed Precip Events Conditions
12:15 AM 50.0 °F 28.4 °F 43% 30.06 in 10.0 mi Calm Calm - N/A   Clear
12:35 AM 50.0 °F 28.4 °F 43% 30.05 in 10.0 mi Calm Calm - N/A   Clear
12:55 AM 51.8 °F 28.4 °F 41% 30.05 in 10.0 mi Calm Calm - N/A   Clear
1:15 AM 48.2 °F 28.4 °F 46% 30.05 in 10.0 mi Calm Calm - N/A   Clear
1:35 AM 46.4 °F 28.4 °F 50% 30.05 in 10.0 mi Calm Calm - N/A   Clear
1:55 AM 48.2 °F 30.2 °F 50% 30.05 in 10.0 mi Calm Calm - N/A   Clear
2:15 AM 46.4 °F 28.4 °F 50% 30.05 in 10.0 mi Calm Calm - N/A   Clear
2:35 AM 46.4 °F 28.4 °F 50% 30.04 in 10.0 mi Calm Calm - N/A   Clear
2:55 AM 46.4 °F 28.4 °F 50% 30.03 in 10.0 mi Calm Calm - N/A   Clear
3:15 AM 46.4 °F 28.4 °F 50% 30.03 in 10.0 mi Calm Calm - N/A   Clear
3:35 AM 46.4 °F 28.4 °F 50% 30.02 in 10.0 mi Calm Calm - N/A   Clear
3:55 AM 48.2 °F 28.4 °F 46% 30.02 in 10.0 mi Calm Calm - N/A   Clear
4:15 AM 48.2 °F 28.4 °F 46% 30.02 in 10.0 mi Calm Calm - N/A   Clear
4:35 AM 46.4 °F 28.4 °F 50% 30.02 in 10.0 mi Calm Calm - N/A   Clear
4:55 AM 46.4 °F 28.4 °F 50% 30.01 in 10.0 mi Calm Calm - N/A   Clear
5:15 AM 46.4 °F 28.4 °F 50% 30.01 in 10.0 mi Calm Calm - N/A   Clear
5:35 AM 46.4 °F 28.4 °F 50% 30.01 in 10.0 mi Calm Calm - N/A   Clear
5:55 AM 46.4 °F 28.4 °F 50% 30.01 in 10.0 mi Calm Calm - N/A   Clear
6:15 AM 46.4 °F 28.4 °F 50% 30.01 in 10.0 mi Calm Calm - N/A   Clear
6:35 AM 46.4 °F 28.4 °F 50% 30.01 in 10.0 mi Calm Calm - N/A   Clear
6:55 AM 44.6 °F 28.4 °F 53% 30.01 in 10.0 mi Calm Calm - N/A   Clear
7:15 AM 44.6 °F 28.4 °F 53% 30.02 in 10.0 mi Calm Calm - N/A   Clear
7:35 AM 44.6 °F 28.4 °F 53% 30.02 in 10.0 mi Calm Calm - N/A   Clear
7:55 AM 46.4 °F 28.4 °F 50% 30.02 in 10.0 mi Calm Calm - N/A   Clear
8:15 AM 48.2 °F 28.4 °F 46% 30.02 in 10.0 mi Calm Calm - N/A   Clear
8:35 AM 53.6 °F 32.0 °F 44% 30.02 in 10.0 mi Calm Calm - N/A   Clear
8:55 AM 55.4 °F 32.0 °F 41% 30.02 in 10.0 mi Calm Calm - N/A   Clear
9:15 AM 64.4 °F 28.4 °F 26% 30.02 in 10.0 mi Calm Calm - N/A   Clear
9:35 AM 69.8 °F 24.8 °F 18% 30.02 in 10.0 mi Calm Calm - N/A   Clear
9:55 AM 71.6 °F 26.6 °F 19% 30.02 in 10.0 mi Calm Calm - N/A   Clear
10:15 AM 73.4 °F 26.6 °F 18% 30.02 in 10.0 mi Calm Calm - N/A   Clear
10:35 AM 73.4 °F 23.0 °F 15% 30.02 in 10.0 mi Calm Calm - N/A   Clear
10:55 AM 75.2 °F 24.8 °F 15% 30.02 in 9.0 mi SSW 3.5 mph - N/A   Clear
11:15 AM 75.2 °F 23.0 °F 14% 30.01 in 10.0 mi SSW 3.5 mph - N/A   Clear
11:35 AM 77.0 °F 23.0 °F 13% 30.01 in 10.0 mi SW 3.5 mph - N/A   Clear
11:55 AM 78.8 °F 24.8 °F 14% 30.00 in 10.0 mi SW 5.8 mph - N/A   Clear
12:15 PM 78.8 °F 24.8 °F 14% 30.00 in 10.0 mi WSW 5.8 mph - N/A   Clear
12:35 PM 80.6 °F 23.0 °F 12% 29.99 in 10.0 mi WSW 8.1 mph - N/A   Clear
12:55 PM 80.6 °F 23.0 °F 12% 29.99 in 10.0 mi West 8.1 mph - N/A   Clear
1:15 PM 80.6 °F 21.2 °F 11% 29.98 in 10.0 mi WSW 5.8 mph - N/A   Clear
1:35 PM 80.6 °F 21.2 °F 11% 29.98 in 10.0 mi SW 6.9 mph - N/A   Clear
1:55 PM 82.4 °F 23.0 °F 11% 29.97 in 10.0 mi WSW 4.6 mph - N/A   Clear
2:15 PM 82.4 °F 19.4 °F 10% 29.96 in 10.0 mi SW 9.2 mph - N/A   Clear
2:35 PM 82.4 °F 19.4 °F 10% 29.96 in 10.0 mi SW 6.9 mph - N/A   Clear
2:55 PM 80.6 °F 21.2 °F 11% 29.95 in 10.0 mi SW 6.9 mph - N/A   Clear
3:15 PM 82.4 °F 19.4 °F 10% 29.95 in 10.0 mi WSW 4.6 mph - N/A   Clear
3:35 PM 80.6 °F 19.4 °F 10% 29.95 in 10.0 mi WSW 9.2 mph - N/A   Clear
3:55 PM 80.6 °F 17.6 °F 10% 29.94 in 10.0 mi SW 5.8 mph - N/A   Clear
4:15 PM 80.6 °F 17.6 °F 10% 29.94 in 10.0 mi WNW 5.8 mph - N/A   Clear
4:35 PM 80.6 °F 17.6 °F 10% 29.94 in 10.0 mi West 6.9 mph - N/A   Clear
4:55 PM 78.8 °F 17.6 °F 10% 29.93 in 10.0 mi NW 3.5 mph - N/A   Clear
5:15 PM 78.8 °F 19.4 °F 11% 29.93 in 10.0 mi West 3.5 mph - N/A   Clear
5:35 PM 77.0 °F 19.4 °F 12% 29.93 in 10.0 mi West 6.9 mph - N/A   Clear
5:55 PM 75.2 °F 19.4 °F 12% 29.92 in 10.0 mi West 4.6 mph - N/A   Clear
6:15 PM 73.4 °F 23.0 °F 15% 29.92 in 10.0 mi WNW 4.6 mph - N/A   Clear
6:35 PM 68.0 °F 23.0 °F 18% 29.92 in 10.0 mi NW 4.6 mph - N/A   Clear
6:55 PM 68.0 °F 23.0 °F 18% 29.93 in 10.0 mi NNW 3.5 mph - N/A   Clear
7:15 PM 62.6 °F 26.6 °F 26% 29.93 in 10.0 mi Calm Calm - N/A   Clear
7:35 PM 60.8 °F 26.6 °F 27% 29.93 in 10.0 mi Calm Calm - N/A   Clear
7:55 PM 59.0 °F 26.6 °F 29% 29.93 in 10.0 mi Calm Calm - N/A   Clear
8:15 PM 59.0 °F 24.8 °F 27% 29.93 in 10.0 mi Calm Calm - N/A   Clear
8:35 PM 57.2 °F 26.6 °F 31% 29.93 in 10.0 mi Calm Calm - N/A   Clear
8:55 PM 57.2 °F 26.6 °F 31% 29.93 in 10.0 mi Calm Calm - N/A   Clear
9:15 PM 55.4 °F 26.6 °F 33% 29.93 in 10.0 mi Calm Calm - N/A   Clear
9:35 PM 53.6 °F 28.4 °F 38% 29.93 in 10.0 mi Calm Calm - N/A   Clear
9:55 PM 53.6 °F 28.4 °F 38% 29.93 in 10.0 mi Calm Calm - N/A   Clear
10:15 PM 53.6 °F 26.6 °F 35% 29.93 in 10.0 mi Calm Calm - N/A   Clear
10:35 PM 53.6 °F 26.6 °F 35% 29.93 in 10.0 mi Calm Calm - N/A   Clear
10:55 PM 51.8 °F 28.4 °F 41% 29.93 in 10.0 mi Calm Calm - N/A   Clear
11:15 PM 50.0 °F 28.4 °F 43% 29.93 in 10.0 mi Calm Calm - N/A   Clear
11:35 PM 50.0 °F 26.6 °F 40% 29.93 in 10.0 mi Calm Calm - N/A   Clear
11:55 PM 50.0 °F 26.6 °F 40% 29.93 in 10.0 mi Calm Calm - N/A   Clear